Princeton, MN

12:47 AM CST on December 17, 2017 (GMT -0600)
Princeton Municipal

Weather History for KPNM - October, 2012

Change the Weather History Date:

Friday, October 19, 2012

  Actual Average Record
Temperature  
Mean Temperature 48 °F -  
Max Temperature 53 °F 53 °F 82 °F (2000)
Min Temperature 42 °F 33 °F 1 °F (1999)
Degree Days  
Heating Degree Days 18    
Moisture  
Dew Point 42 °F    
Average Humidity 82    
Maximum Humidity 100    
Minimum Humidity 58    
Precipitation  
Precipitation 0.05 in - - ()
Sea Level Pressure  
Sea Level Pressure 29.59 in    
Wind  
Wind Speed 2 mph (North)    
Max Wind Speed 12 mph    
Max Gust Speed 16 mph    
Visibility 9 miles    
Events Rain    
Averages and records for this station are not official NWS values.
T = Trace of Precipitation, MM = Missing Value Source: NWS Daily Summary

Daily Weather History Graph

Daily Weather History Graph

Search for Another Location

Airport or City:

Trip Planner

Search our weather history database for the weather conditions in past years. The results will help you decide how hot, cold, wet, or windy it might be!

Date:

Astronomy

Oct. 19, 2012 Rise Set
Actual Time 7:36 AM CDT 6:21 PM CDT
Civil Twilight 7:06 AM CDT 6:51 PM CDT
Nautical Twilight 6:32 AM CDT 7:25 PM CDT
Astronomical Twilight 5:57 AM CDT 7:59 PM CDT
Moon 12:30 PM CDT (10/19) 9:50 PM CDT (10/19)
Length of Visible Light 11h 44m
Length of Day
10h 44m
Waxing Crescent, 24% of the Moon is Illuminated
Oct 19
Waxing Crescent
Oct 21
First Quarter
Oct 29
Full
Nov 6
Last Quarter
Nov 13
New

Hourly Weather History & Observations

Time (CDT) Temp. Windchill Dew Point Humidity Pressure Visibility Wind Dir Wind Speed Gust Speed Precip Events Conditions
12:33 AM 44.6 °F - 42.8 °F 93% 29.41 in 7.0 mi Calm Calm - 0.01 in Rain Light Rain
12:52 AM 44.6 °F - 42.8 °F 93% 29.42 in 7.0 mi Calm Calm - 0.01 in   Light Drizzle
1:13 AM 44.6 °F - 42.8 °F 93% 29.43 in 7.0 mi Calm Calm - N/A   Drizzle
1:33 AM 44.6 °F - 42.8 °F 93% 29.43 in 7.0 mi Calm Calm - N/A   Drizzle
1:52 AM 44.6 °F - 42.8 °F 93% 29.43 in 7.0 mi Calm Calm - 0.01 in Rain Rain
2:13 AM 44.6 °F - 42.8 °F 93% 29.44 in 7.0 mi Calm Calm - N/A   Unknown
2:33 AM 44.6 °F - 44.6 °F 100% 29.45 in 7.0 mi Calm Calm - N/A Rain Rain
2:52 AM 44.6 °F - 44.6 °F 100% 29.46 in 7.0 mi Calm Calm - 0.01 in   Drizzle
3:13 AM 44.6 °F - 44.6 °F 100% 29.46 in 7.0 mi Calm Calm - N/A   Light Drizzle
3:33 AM 44.6 °F - 44.6 °F 100% 29.46 in 7.0 mi Calm Calm - N/A Rain Rain
3:53 AM 44.6 °F - 44.6 °F 100% 29.46 in 7.0 mi Calm Calm - N/A   Light Drizzle
4:13 AM 44.6 °F - 42.8 °F 93% 29.46 in 7.0 mi Calm Calm - N/A   Unknown
4:33 AM 44.6 °F - 42.8 °F 93% 29.47 in 5.0 mi Calm Calm - N/A   Mist
4:53 AM 44.6 °F - 44.6 °F 100% 29.47 in 7.0 mi Calm Calm - N/A   Unknown
5:13 AM 44.6 °F - 44.6 °F 100% 29.49 in 7.0 mi Calm Calm - N/A   Unknown
5:33 AM 44.6 °F - 44.6 °F 100% 29.50 in 7.0 mi Calm Calm - N/A   Unknown
5:52 AM 44.6 °F - 44.6 °F 100% 29.51 in 7.0 mi Calm Calm - N/A   Unknown
6:13 AM 46.4 °F - 44.6 °F 93% 29.51 in 3.0 mi Calm Calm - N/A   Light Drizzle
6:33 AM 46.4 °F - 44.6 °F 93% 29.51 in 4.0 mi Calm Calm - N/A   Mist
6:52 AM 46.4 °F - 44.6 °F 93% 29.52 in 7.0 mi Calm Calm - N/A   Unknown
7:13 AM 46.4 °F - 44.6 °F 93% 29.52 in 7.0 mi Calm Calm - N/A   Unknown
7:33 AM 46.4 °F 45.2 °F 44.6 °F 93% 29.53 in 7.0 mi NNW 3.5 mph - N/A Rain Light Rain
7:52 AM 46.4 °F - 44.6 °F 93% 29.53 in 7.0 mi Calm Calm - 0.01 in Rain Light Rain
8:13 AM 46.4 °F 44.3 °F 44.6 °F 93% 29.54 in 4.0 mi NW 4.6 mph - N/A   Drizzle
8:33 AM 46.4 °F 45.2 °F 44.6 °F 93% 29.54 in 4.0 mi NW 3.5 mph - 0.01 in Rain Light Rain
8:52 AM 46.4 °F 42.4 °F 44.6 °F 93% 29.55 in 7.0 mi NNW 8.1 mph - 0.01 in Rain Rain
9:13 AM 46.4 °F 43.5 °F 46.4 °F 100% 29.55 in 10.0 mi NNW 5.8 mph - N/A   Light Drizzle
9:33 AM 48.2 °F - 46.4 °F 93% 29.56 in 10.0 mi NW 5.8 mph - N/A   Drizzle
9:52 AM 48.2 °F - 46.4 °F 93% 29.57 in 10.0 mi NW 8.1 mph - N/A   Light Drizzle
10:13 AM 48.2 °F - 46.4 °F 93% 29.57 in 10.0 mi NNW 8.1 mph - N/A   Unknown
10:33 AM 48.2 °F - 46.4 °F 93% 29.58 in 10.0 mi NNW 8.1 mph - N/A   Unknown
10:52 AM 48.2 °F - 46.4 °F 93% 29.59 in 10.0 mi North 8.1 mph - N/A   Unknown
11:13 AM 48.2 °F - 44.6 °F 87% 29.60 in 10.0 mi North 10.4 mph - N/A   Unknown
11:33 AM 50.0 °F - 44.6 °F 82% 29.61 in 10.0 mi North 11.5 mph 16.1 mph N/A   Unknown
11:53 AM 50.0 °F - 44.6 °F 82% 29.61 in 10.0 mi NNE 11.5 mph - N/A   Unknown
12:13 PM 50.0 °F - 44.6 °F 82% 29.62 in 10.0 mi NE 6.9 mph - N/A   Unknown
12:33 PM 51.8 °F - 44.6 °F 76% 29.62 in 10.0 mi NE 5.8 mph - N/A   Unknown
12:53 PM 51.8 °F - 42.8 °F 71% 29.63 in 10.0 mi North 10.4 mph - N/A   Unknown
1:13 PM 51.8 °F - 42.8 °F 71% 29.63 in 10.0 mi NE 9.2 mph - N/A   Unknown
1:33 PM 51.8 °F - 41.0 °F 67% 29.63 in 10.0 mi NE 8.1 mph - N/A   Unknown
1:53 PM 51.8 °F - 42.8 °F 71% 29.63 in 10.0 mi NNE 8.1 mph - N/A   Unknown
2:13 PM 51.8 °F - 42.8 °F 71% 29.63 in 10.0 mi NE 6.9 mph - N/A   Unknown
2:33 PM 51.8 °F - 41.0 °F 67% 29.64 in 10.0 mi NE 5.8 mph - N/A   Unknown
2:53 PM 53.6 °F - 39.2 °F 58% 29.64 in 10.0 mi NNE 5.8 mph 9.2 mph N/A   Unknown
3:13 PM 53.6 °F - 39.2 °F 58% 29.64 in 10.0 mi NNE 8.1 mph - N/A   Unknown
3:33 PM 53.6 °F - 39.2 °F 58% 29.64 in 10.0 mi North 9.2 mph - N/A   Unknown
3:53 PM 53.6 °F - 39.2 °F 58% 29.65 in 10.0 mi North 6.9 mph - N/A   Unknown
4:13 PM 51.8 °F - 37.4 °F 58% 29.65 in 10.0 mi NNE 9.2 mph - N/A   Unknown
4:33 PM 51.8 °F - 39.2 °F 62% 29.65 in 10.0 mi NE 6.9 mph - N/A   Unknown
4:53 PM 51.8 °F - 37.4 °F 58% 29.66 in 10.0 mi NNE 8.1 mph - N/A   Unknown
5:13 PM 51.8 °F - 37.4 °F 58% 29.66 in 10.0 mi NE 8.1 mph - N/A   Unknown
5:33 PM 51.8 °F - 37.4 °F 58% 29.67 in 10.0 mi NE 6.9 mph - N/A   Unknown
5:53 PM 50.0 °F - 35.6 °F 58% 29.67 in 10.0 mi NE 3.5 mph - N/A   Unknown
6:12 PM 48.2 °F - 37.4 °F 66% 29.68 in 10.0 mi Calm Calm - N/A   Unknown
6:33 PM 46.4 °F - 37.4 °F 71% 29.69 in 10.0 mi Calm Calm - N/A   Unknown
6:53 PM 46.4 °F - 37.4 °F 71% 29.70 in 10.0 mi Calm Calm - N/A   Unknown
7:13 PM 46.4 °F - 39.2 °F 76% 29.70 in 10.0 mi Calm Calm - N/A   Unknown
7:33 PM 46.4 °F - 39.2 °F 76% 29.71 in 10.0 mi Calm Calm - N/A   Unknown
7:53 PM 44.6 °F - 37.4 °F 76% 29.71 in 10.0 mi Calm Calm - N/A   Unknown
8:13 PM 44.6 °F - 37.4 °F 76% 29.72 in 10.0 mi Calm Calm - N/A   Unknown
8:33 PM 44.6 °F - 39.2 °F 81% 29.72 in 10.0 mi Calm Calm - N/A   Unknown
8:53 PM 44.6 °F - 39.2 °F 81% 29.72 in 10.0 mi Calm Calm - N/A   Unknown
9:13 PM 46.4 °F - 39.2 °F 76% 29.72 in 10.0 mi Calm Calm - N/A   Unknown
9:33 PM 44.6 °F - 39.2 °F 81% 29.72 in 10.0 mi Calm Calm - N/A   Unknown
9:53 PM 44.6 °F - 37.4 °F 76% 29.72 in 10.0 mi Calm Calm - N/A   Unknown
10:13 PM 42.8 °F - 37.4 °F 81% 29.73 in 10.0 mi Calm Calm - N/A   Unknown
10:33 PM 44.6 °F - 37.4 °F 76% 29.73 in 10.0 mi Calm Calm - N/A   Unknown
10:53 PM 44.6 °F 43.1 °F 39.2 °F 81% 29.73 in 10.0 mi NE 3.5 mph - N/A   Unknown
11:13 PM 44.6 °F - 37.4 °F 76% 29.73 in 10.0 mi Calm Calm - N/A   Unknown
11:33 PM 46.4 °F - 37.4 °F 71% 29.73 in 10.0 mi Calm Calm - N/A   Unknown
11:53 PM 44.6 °F - 37.4 °F 76% 29.73 in 10.0 mi Calm Calm - N/A   Unknown